Weather History for KBMQ - October, 2012

Change the Weather History Date:

Wednesday, October 24, 2012

  Actual Average Record
Temperature  
Mean Temperature 75 °F -  
Max Temperature 84 °F 73 °F 88 °F (2001)
Min Temperature 68 °F 55 °F 39 °F (2005)
Cooling Degree Days 10    
Growing Degree Days 25 (Base 50)    
Moisture  
Dew Point 64 °F    
Average Humidity 73    
Maximum Humidity 90    
Minimum Humidity 46    
Precipitation  
Precipitation 0.00 in - - ()
Sea Level Pressure  
Sea Level Pressure 29.93 in    
Wind  
Wind Speed 8 mph (South)    
Max Wind Speed 14 mph    
Max Gust Speed 21 mph    
Visibility 10 miles    
Events      
Averages and records for this station are not official NWS values.
T = Trace of Precipitation, MM = Missing Value Source: NWS Daily Summary

Daily Weather History Graph

Daily Weather History Graph

Search for Another Location

Airport or City:

Trip Planner

Search our weather history database for the weather conditions in past years. The results will help you decide how hot, cold, wet, or windy it might be!

Date:

Astronomy

Oct. 24, 2012 Rise Set
Actual Time 7:42 AM CDT 6:51 PM CDT
Civil Twilight 7:17 AM CDT 7:16 PM CDT
Nautical Twilight 6:49 AM CDT 7:44 PM CDT
Astronomical Twilight 6:21 AM CDT 8:12 PM CDT
Moon 3:51 PM CDT (10/24) 2:57 AM CDT (10/24)
Length of Visible Light 11h 58m
Length of Day
11h 09m
Waxing Gibbous, 76% of the Moon is Illuminated
Oct 24
Waxing Gibbous
Oct 29
Full
Nov 6
Last Quarter
Nov 13
New
Nov 20
First Quarter

Hourly Weather History & Observations

Time (CDT) Temp. Heat Index Dew Point Humidity Pressure Visibility Wind Dir Wind Speed Gust Speed Precip Events Conditions
12:53 AM 71.1 °F - 64.9 °F 81% 29.94 in 10.0 mi South 6.9 mph - N/A   Clear
1:53 AM 70.0 °F - 64.9 °F 84% 29.94 in 10.0 mi South 6.9 mph - N/A   Mostly Cloudy
2:53 AM 70.0 °F - 66.0 °F 87% 29.94 in 10.0 mi South 10.4 mph - N/A   Overcast
3:53 AM 70.0 °F - 64.9 °F 84% 29.93 in 10.0 mi South 9.2 mph - N/A   Overcast
4:03 AM 70.0 °F - 64.9 °F 84% 29.98 in 10.0 mi South 8.1 mph - N/A   Overcast
4:53 AM 70.0 °F - 64.9 °F 84% 29.92 in 10.0 mi South 9.2 mph - N/A   Overcast
5:53 AM 69.1 °F - 64.9 °F 87% 29.93 in 10.0 mi South 5.8 mph - N/A   Overcast
6:50 AM 68.0 °F - 64.4 °F 88% 29.98 in 10.0 mi South 9.2 mph - N/A   Scattered Clouds
6:53 AM 68.0 °F - 64.9 °F 90% 29.94 in 10.0 mi South 8.1 mph - N/A   Scattered Clouds
7:53 AM 68.0 °F - 64.9 °F 90% 29.95 in 9.0 mi South 5.8 mph - N/A   Scattered Clouds
8:04 AM 68.0 °F - 64.9 °F 90% 30.00 in 9.0 mi South 4.6 mph - N/A   Mostly Cloudy
8:31 AM 68.0 °F - 64.9 °F 90% 30.01 in 9.0 mi SSE 5.8 mph - N/A   Mostly Cloudy
8:53 AM 69.1 °F - 66.0 °F 90% 29.97 in 10.0 mi SSE 5.8 mph - N/A   Mostly Cloudy
9:08 AM 70.0 °F - 66.0 °F 87% 30.02 in 10.0 mi South 12.7 mph - N/A   Scattered Clouds
9:42 AM 72.0 °F - 66.0 °F 81% 30.03 in 10.0 mi South 10.4 mph - N/A   Mostly Cloudy
9:53 AM 72.0 °F - 66.0 °F 81% 29.98 in 10.0 mi South 11.5 mph 18.4 mph N/A   Mostly Cloudy
10:10 AM 72.0 °F - 64.9 °F 78% 30.03 in 10.0 mi South 9.2 mph - N/A   Overcast
11:22 AM 75.0 °F - 63.0 °F 66% 30.02 in 10.0 mi South 13.8 mph - N/A   Scattered Clouds
11:53 AM 77.0 °F - 63.0 °F 62% 29.97 in 10.0 mi South 10.4 mph 17.3 mph N/A   Scattered Clouds
12:53 PM 79.0 °F - 61.0 °F 54% 29.94 in 10.0 mi SSE 10.4 mph 20.7 mph N/A   Clear
1:53 PM 80.1 °F 81.1 °F 61.0 °F 52% 29.90 in 10.0 mi South 8.1 mph 18.4 mph N/A   Clear
2:53 PM 82.0 °F 82.4 °F 60.1 °F 47% 29.88 in 10.0 mi South 13.8 mph - N/A   Clear
3:53 PM 82.9 °F 83.2 °F 60.1 °F 46% 29.86 in 10.0 mi South 10.4 mph 20.7 mph N/A   Clear
4:53 PM 82.9 °F 83.3 °F 61.0 °F 47% 29.85 in 10.0 mi South 10.4 mph 20.7 mph N/A   Clear
5:53 PM 82.0 °F 82.4 °F 60.1 °F 47% 29.85 in 10.0 mi South 12.7 mph 19.6 mph N/A   Clear
6:53 PM 79.0 °F - 61.0 °F 54% 29.85 in 10.0 mi SE 6.9 mph - N/A   Clear
7:53 PM 77.0 °F - 61.0 °F 58% 29.86 in 10.0 mi SE 5.8 mph - N/A   Clear
8:53 PM 75.0 °F - 61.0 °F 62% 29.86 in 10.0 mi SSE 4.6 mph - N/A   Clear
9:53 PM 73.9 °F - 61.0 °F 64% 29.86 in 10.0 mi Variable 4.6 mph - N/A   Clear
11:53 PM 72.0 °F - 64.0 °F 76% 29.86 in 10.0 mi South 9.2 mph 19.6 mph N/A   Clear